Regional Weather Roundup
Issued by NWS

Home | Current Version | Previous Version | Text Only | Print | Product List | Glossary On
Versions: 1 2 3 4 5 6 7 8 9 10 11 12 13 14 15 16 17 18 19 20 21 22 23 24 25 26 27 28 29 30 31 32 33 34 35 36 37 38 39 40 41 42 43 44 45 46 47 48 49 50
000
ASUS43 KMKX 182000
RWRWI

WISCONSIN REGIONAL WEATHER ROUNDUP
NATIONAL WEATHER SERVICE MILWAUKEE/SULLIVAN WI
200 PM CST WED JAN 18 2017

NOTE: "FAIR" INDICATES FEW OR NO CLOUDS BELOW 12,000 FEET WITH NO
SIGNIFICANT WEATHER AND/OR OBSTRUCTIONS TO VISIBILITY.

WIZ001-002-006>008-014>016-023>028-182100-
NORTHWEST WISCONSIN

CITY           SKY/WX    TMP DP  RH WIND       PRES   REMARKS
SUPERIOR ARPT  SUNNY     40  27  59 SW10      29.79F WCI  34
ASHLAND        SUNNY     43  27  53 SW10      29.79S
HAYWARD        SUNNY     39  27  62 S13       29.82S WCI  31
SIREN          SUNNY     40  27  59 SW9       29.84S WCI  35
CUMBERLAND     SUNNY     36  28  75 SW12      29.85S WCI  27
RICE LAKE      SUNNY     39  29  69 S10       29.88S WCI  32
CHETEK         NOT AVBL
LADYSMITH      SUNNY     39  29  67 S9        29.88R WCI  33
EAU CLAIRE     NOT AVBL
MENOMONIE      SUNNY     39  30  72 MISG      29.89F
NEW RICHMOND   SUNNY     38  30  73 S12       29.87S WCI  31
OSCEOLA        SUNNY     38  31  74 S9        29.88F WCI  32
$$

WIZ003>005-009-010-017-018-182100-
NORTH CENTRAL WISCONSIN

CITY           SKY/WX    TMP DP  RH WIND       PRES   REMARKS
MANITOWISH WTR SUNNY     40  27  59 SW12      29.79S WCI  34
ARBOR VITAE    SUNNY     43  29  57 SW10G16   29.80S
WOODRUFF       SUNNY     43  29  57 SW10G16   29.80S
RHINELANDER    SUNNY     41  30  65 SW14G20   29.83R
EAGLE RIVER    SUNNY     41  27  56 SW9       29.79S
LAND O LAKES   SUNNY     45  26  47 SW10      29.79S
PHILLIPS       SUNNY     38  29  69 SW10      29.82S WCI  31
TOMAHAWK       SUNNY     40  29  65 S5        29.84F
MEDFORD        SUNNY     34  30  85 SW7       29.87S WCI  28
MERRILL        SUNNY     38  31  76 SW9         N/A  WCI  31
$$

WIZ029-030-035-036-043>047-182100-
CENTRAL WISCONSIN

CITY           SKY/WX    TMP DP  RH WIND       PRES   REMARKS
WAUSAU         SUNNY     38  30  73 SW12      29.88S WCI  30
MOSINEE        SUNNY     37  34  87 SW17      29.89F WCI  28
MARSHFIELD     SUNNY     39  30  70 SW9       29.88F WCI  33
STEVENS POINT  SUNNY     36  32  84 S7        29.91F WCI  31
WAUPACA        SUNNY     43  32  65 CALM      29.94R
WAUTOMA        SUNNY     41  31  67 S13       29.94F
WISC RAPIDS    SUNNY     40  32  73 SW8       29.93S WCI  34
CAMP DOUGLAS   NOT AVBL
$$

WIZ011>013-019>022-031-037>040-048>050-182100-
NORTHEAST WISCONSIN

CITY           SKY/WX    TMP DP  RH WIND       PRES   REMARKS
ANTIGO         SUNNY     33  33 100 SW13G18   29.86S WCI  24
SHAWANO        SUNNY     40  32  71 SW6       29.90F
OCONTO         NOT AVBL
STURGEON BAY   SUNNY     36  31  82 SW16G24   29.89F WCI  26
GREEN BAY      PTSUNNY   36  33  89 S9        29.92F WCI  29
MANITOWOC      NOT AVBL
APPLETON       PTSUNNY   34  34 100 S13G18    29.92F WCI  25
CLINTONVILLE   SUNNY     37  32  81 SW13      29.91S WCI  29
OSHKOSH        MOSUNNY   35  31  85 S17G24    29.95F WCI  25
$$

WIZ032>034-041-042-053>061-182100-
SOUTHWEST WISCONSIN

CITY           SKY/WX    TMP DP  RH WIND       PRES   REMARKS
LA CROSSE      SUNNY     37  30  75 S14       29.95F WCI  28
SPARTA         SUNNY     37  31  79 S9        29.95F WCI  30
VIROQUA        CLOUDY    32  31  97 S10       29.96S WCI  24
BOSCOBEL       CLOUDY    36  30  79 SW9       30.01S HAZE    WCI  29
PRAIRIE DU CHI CLOUDY    35  30  81 S9        30.01S WCI  28
PLATTEVILLE    CLOUDY    34  33  98 SW13      30.01F WCI  25
$$

WIZ056-057-062-063-064-067-068-182100-
SOUTH CENTRAL WISCONSIN

CITY           SKY/WX    TMP DP  RH WIND       PRES   REMARKS
REEDSBURG      MOSUNNY   35  32  90 SW8       29.98F WCI  28
BARABOO/DELLS  MOSUNNY   34  30  85 SW9       29.97F WCI  27
LONE ROCK      CLOUDY    35  29  78 SW6       30.02R WCI  30
MINERAL POINT  CLOUDY    32  32 100 SW10      29.98F FOG     WCI  24
MADISON        CLOUDY    34  30  85 VRB6      30.02R WCI  29
MIDDLETON      CLOUDY    36  33  87 SW7       30.01S WCI  31
WATERTOWN      CLOUDY    34  33  95 SW14      30.02R WCI  24
MONROE         CLOUDY    32  32 100 S14       30.00F FOG     WCI  22
JANESVILLE     CLOUDY    34  34 100 SW12G17   30.03F WCI  25
$$

WIZ051-052-058>065-066-070>072-182100-
SOUTHEAST WISCONSIN

CITY           SKY/WX    TMP DP  RH WIND       PRES   REMARKS
MILWAUKEE      CLOUDY    37  31  78 SW18      30.03R WCI  27
WAUKESHA       CLOUDY    34  30  86 W12       30.02S WCI  25
MILWAUKEE/TIMM CLOUDY    36  30  80 W17       30.03R WCI  25
RACINE         CLOUDY    35  31  85 W14G25    30.03F WCI  26
KENOSHA        CLOUDY    35  32  88 SW16G23   30.03S FOG     WCI  25
FOND DU LAC    CLOUDY    36  30  79 SW13G21   29.98S WCI  27
SHEBOYGAN      SUNNY     39  32  76 SW15      29.97S WCI  31
WEST BEND      CLOUDY    36  32  87 SW10      30.00R WCI  28
JUNEAU         CLOUDY    33  31  92 SW14      30.03R WCI  24
$$

LSZ147-162-182100-
LAKE SUPERIOR

STATION/POSITION TIME  TEMP    WIND        PRES    WAVE
                       AIR SEA DIR/SP/G            HT/PER
                 (UTC) (F)     (DEG/KT/KT) (MB)    (FT/S)
DEVILS ISLAND    1900   34     240/ 14/ 17 1009.0F
PORT WING        1940   38     260/  7/  9 1008.8F
SAXON HARBOR     1930   46     210/  7/ 12 1008.1F
$$

LMZ867-665-643>646-182100-
LAKE MICHIGAN

STATION/POSITION TIME  TEMP    WIND        PRES    WAVE
                       AIR SEA DIR/SP/G            HT/PER
                 (UTC) (F)     (DEG/KT/KT) (MB)    (FT/S)
NORTHPORT PIER   1940   39     210/  4/ 13 1011.2F
SISTER BAY       1850   40     240/ 14/ 18   N/A
KEWAUNEE LAKESHO 1930   36     210/  8/ 13 1013.1F
SHEBOYGAN LAKESH 1900   36     190/  7/  8 1015.6F
PORT WASHINGTON  1940   41     250/ 12/ 16 1016.9R
MILWAUKEE LAKESH 1930   36     260/ 15/ 19   N/A
KENOSHA   LAKESH 1900   36     230/ 12/ 18 1017.3
$$

TC  - TEMPERATURE IN CELSIUS
VSB - VISIBILITY IN STATUTE MILES
WCI - WIND CHILL INDEX
HX  - HEAT INDEX




USA.gov is the U.S. government's official web portal to all federal, state and local government web resources and services.